Time,TemperatureF,DewpointF,PressureIn,WindDirection,WindDirectionDegrees,WindSpeedMPH,WindSpeedGustMPH,Humidity,HourlyPrecipIn,Conditions,Clouds,dailyrainin,SoftwareType,DateUTC
2013-01-11 00:12:00,13.0,-99.9,-100.00,North,-999,-999.0,-999.0,-999,0.03,,,0.19,,2013-01-11 07:12:00,
2013-01-11 00:22:00,13.0,-99.9,-100.00,North,-999,-999.0,-999.0,-999,0.03,,,0.19,,2013-01-11 07:22:00,
2013-01-11 00:32:00,13.0,-99.9,-100.00,North,-999,-999.0,-999.0,-999,0.03,,,0.19,,2013-01-11 07:32:00,
2013-01-11 00:43:00,13.0,-99.9,-100.00,North,-999,-999.0,-999.0,-999,0.03,,,0.19,,2013-01-11 07:43:00,
2013-01-11 01:22:00,13.0,-99.9,-100.00,North,-999,-999.0,-999.0,-999,-99.99,,,0.18,,2013-01-11 08:22:00,
2013-01-11 01:32:00,13.0,-99.9,-100.00,North,-999,-999.0,-999.0,-999,-99.99,,,0.18,,2013-01-11 08:32:00,
2013-01-11 01:43:00,13.0,-99.9,-100.00,North,-999,-999.0,-999.0,-999,-99.99,,,0.18,,2013-01-11 08:43:00,
2013-01-11 02:12:00,12.0,-99.9,-100.00,North,-999,-999.0,-999.0,-999,0.03,,,0.21,,2013-01-11 09:12:00,
2013-01-11 02:23:00,12.0,-99.9,-100.00,North,-999,-999.0,-999.0,-999,0.03,,,0.21,,2013-01-11 09:23:00,
2013-01-11 02:32:00,12.0,-99.9,-100.00,North,-999,-999.0,-999.0,-999,0.03,,,0.21,,2013-01-11 09:32:00,
2013-01-11 02:43:00,12.0,-99.9,-100.00,North,-999,-999.0,-999.0,-999,0.03,,,0.21,,2013-01-11 09:43:00,
2013-01-11 03:12:00,11.0,-99.9,-100.00,North,-999,-999.0,-999.0,-999,0.01,,,0.22,,2013-01-11 10:12:00,
2013-01-11 03:22:00,11.0,-99.9,-100.00,North,-999,-999.0,-999.0,-999,0.01,,,0.22,,2013-01-11 10:22:00,
2013-01-11 03:32:00,11.0,-99.9,-100.00,North,-999,-999.0,-999.0,-999,0.01,,,0.22,,2013-01-11 10:32:00,
2013-01-11 03:43:00,11.0,-99.9,-100.00,North,-999,-999.0,-999.0,-999,0.01,,,0.22,,2013-01-11 10:43:00,
2013-01-11 04:12:00,11.0,-99.9,-100.00,North,-999,-999.0,-999.0,-999,0.00,,,0.22,,2013-01-11 11:12:00,
2013-01-11 04:23:00,11.0,-99.9,-100.00,North,-999,-999.0,-999.0,-999,0.00,,,0.22,,2013-01-11 11:23:00,
2013-01-11 04:33:00,11.0,-99.9,-100.00,North,-999,-999.0,-999.0,-999,0.00,,,0.22,,2013-01-11 11:33:00,
2013-01-11 04:43:00,11.0,-99.9,-100.00,North,-999,-999.0,-999.0,-999,0.00,,,0.22,,2013-01-11 11:43:00,
2013-01-11 05:13:00,10.0,-99.9,-100.00,North,-999,-999.0,-999.0,-999,0.00,,,0.22,,2013-01-11 12:13:00,
2013-01-11 05:23:00,10.0,-99.9,-100.00,North,-999,-999.0,-999.0,-999,0.00,,,0.22,,2013-01-11 12:23:00,
2013-01-11 05:33:00,10.0,-99.9,-100.00,North,-999,-999.0,-999.0,-999,0.00,,,0.22,,2013-01-11 12:33:00,
2013-01-11 05:43:00,10.0,-99.9,-100.00,North,-999,-999.0,-999.0,-999,0.00,,,0.22,,2013-01-11 12:43:00,
2013-01-11 06:13:00,10.0,-99.9,-100.00,North,-999,-999.0,-999.0,-999,0.00,,,0.22,,2013-01-11 13:13:00,
2013-01-11 06:23:00,10.0,-99.9,-100.00,North,-999,-999.0,-999.0,-999,0.00,,,0.22,,2013-01-11 13:23:00,
2013-01-11 06:33:00,10.0,-99.9,-100.00,North,-999,-999.0,-999.0,-999,0.00,,,0.22,,2013-01-11 13:33:00,
2013-01-11 06:43:00,10.0,-99.9,-100.00,North,-999,-999.0,-999.0,-999,0.00,,,0.22,,2013-01-11 13:43:00,
2013-01-11 07:12:00,10.0,-99.9,-100.00,North,-999,-999.0,-999.0,-999,0.00,,,0.22,,2013-01-11 14:12:00,
2013-01-11 07:23:00,10.0,-99.9,-100.00,North,-999,-999.0,-999.0,-999,0.00,,,0.22,,2013-01-11 14:23:00,
2013-01-11 07:33:00,10.0,-99.9,-100.00,North,-999,-999.0,-999.0,-999,0.00,,,0.22,,2013-01-11 14:33:00,
2013-01-11 07:43:00,10.0,-99.9,-100.00,North,-999,-999.0,-999.0,-999,0.00,,,0.22,,2013-01-11 14:43:00,
2013-01-11 08:13:00,9.0,-99.9,-100.00,North,-999,-999.0,-999.0,-999,0.01,,,0.23,,2013-01-11 15:13:00,
2013-01-11 08:23:00,9.0,-99.9,-100.00,North,-999,-999.0,-999.0,-999,0.01,,,0.23,,2013-01-11 15:23:00,
2013-01-11 08:33:00,9.0,-99.9,-100.00,North,-999,-999.0,-999.0,-999,0.01,,,0.23,,2013-01-11 15:33:00,
2013-01-11 08:43:00,9.0,-99.9,-100.00,North,-999,-999.0,-999.0,-999,0.01,,,0.23,,2013-01-11 15:43:00,
2013-01-11 09:13:00,9.0,-99.9,-100.00,North,-999,-999.0,-999.0,-999,0.00,,,0.23,,2013-01-11 16:13:00,
2013-01-11 09:23:00,9.0,-99.9,-100.00,North,-999,-999.0,-999.0,-999,0.00,,,0.23,,2013-01-11 16:23:00,
2013-01-11 09:33:00,9.0,-99.9,-100.00,North,-999,-999.0,-999.0,-999,0.00,,,0.23,,2013-01-11 16:33:00,
2013-01-11 09:43:00,9.0,-99.9,-100.00,North,-999,-999.0,-999.0,-999,0.00,,,0.23,,2013-01-11 16:43:00,
2013-01-11 10:12:00,9.0,-99.9,-100.00,North,-999,-999.0,-999.0,-999,0.00,,,-99.99,,2013-01-11 17:12:00,
2013-01-11 10:23:00,9.0,-99.9,-100.00,North,-999,-999.0,-999.0,-999,0.00,,,-99.99,,2013-01-11 17:23:00,
2013-01-11 10:33:00,9.0,-99.9,-100.00,North,-999,-999.0,-999.0,-999,0.00,,,-99.99,,2013-01-11 17:33:00,
2013-01-11 10:43:00,9.0,-99.9,-100.00,North,-999,-999.0,-999.0,-999,0.00,,,-99.99,,2013-01-11 17:43:00,
2013-01-11 11:13:00,9.0,-99.9,-100.00,North,-999,-999.0,-999.0,-999,0.01,,,0.20,,2013-01-11 18:13:00,
2013-01-11 11:24:00,9.0,-99.9,-100.00,North,-999,-999.0,-999.0,-999,0.01,,,0.20,,2013-01-11 18:24:00,
2013-01-11 11:33:00,9.0,-99.9,-100.00,North,-999,-999.0,-999.0,-999,0.01,,,0.20,,2013-01-11 18:33:00,
2013-01-11 11:43:00,9.0,-99.9,-100.00,North,-999,-999.0,-999.0,-999,0.01,,,0.20,,2013-01-11 18:43:00,
2013-01-11 12:13:00,8.0,-99.9,-100.00,North,-999,-999.0,-999.0,-999,0.00,,,0.19,,2013-01-11 19:13:00,
2013-01-11 12:23:00,8.0,-99.9,-100.00,North,-999,-999.0,-999.0,-999,0.00,,,0.19,,2013-01-11 19:23:00,
2013-01-11 12:33:00,8.0,-99.9,-100.00,North,-999,-999.0,-999.0,-999,0.00,,,0.19,,2013-01-11 19:33:00,
2013-01-11 12:43:00,8.0,-99.9,-100.00,North,-999,-999.0,-999.0,-999,0.00,,,0.19,,2013-01-11 19:43:00,
2013-01-11 13:13:00,9.0,-99.9,-100.00,North,-999,-999.0,-999.0,-999,-99.99,,,0.18,,2013-01-11 20:13:00,
2013-01-11 13:23:00,9.0,-99.9,-100.00,North,-999,-999.0,-999.0,-999,-99.99,,,0.18,,2013-01-11 20:23:00,
2013-01-11 13:33:00,9.0,-99.9,-100.00,North,-999,-999.0,-999.0,-999,-99.99,,,0.18,,2013-01-11 20:33:00,
2013-01-11 13:43:00,9.0,-99.9,-100.00,North,-999,-999.0,-999.0,-999,-99.99,,,0.18,,2013-01-11 20:43:00,
2013-01-11 14:13:00,8.0,-99.9,-100.00,North,-999,-999.0,-999.0,-999,0.01,,,0.19,,2013-01-11 21:13:00,
2013-01-11 14:23:00,8.0,-99.9,-100.00,North,-999,-999.0,-999.0,-999,0.01,,,0.19,,2013-01-11 21:23:00,
2013-01-11 14:33:00,8.0,-99.9,-100.00,North,-999,-999.0,-999.0,-999,0.01,,,0.19,,2013-01-11 21:33:00,
2013-01-11 14:43:00,8.0,-99.9,-100.00,North,-999,-999.0,-999.0,-999,0.01,,,0.19,,2013-01-11 21:43:00,
2013-01-11 15:13:00,7.0,-99.9,-100.00,North,-999,-999.0,-999.0,-999,0.04,,,0.19,,2013-01-11 22:13:00,
2013-01-11 15:23:00,7.0,-99.9,-100.00,North,-999,-999.0,-999.0,-999,0.04,,,0.19,,2013-01-11 22:23:00,
2013-01-11 15:33:00,7.0,-99.9,-100.00,North,-999,-999.0,-999.0,-999,0.04,,,0.19,,2013-01-11 22:33:00,
2013-01-11 15:43:00,7.0,-99.9,-100.00,North,-999,-999.0,-999.0,-999,0.04,,,0.19,,2013-01-11 22:43:00,
2013-01-11 16:13:00,6.0,-99.9,-100.00,North,-999,-999.0,-999.0,-999,0.00,,,0.17,,2013-01-11 23:13:00,
2013-01-11 16:23:00,6.0,-99.9,-100.00,North,-999,-999.0,-999.0,-999,0.00,,,0.17,,2013-01-11 23:23:00,
2013-01-11 16:33:00,6.0,-99.9,-100.00,North,-999,-999.0,-999.0,-999,0.00,,,0.17,,2013-01-11 23:33:00,
2013-01-11 16:43:00,6.0,-99.9,-100.00,North,-999,-999.0,-999.0,-999,0.00,,,0.17,,2013-01-11 23:43:00,
2013-01-11 17:13:00,4.0,-99.9,-100.00,North,-999,-999.0,-999.0,-999,0.03,,,0.17,,2013-01-12 00:13:00,
2013-01-11 17:23:00,4.0,-99.9,-100.00,North,-999,-999.0,-999.0,-999,0.03,,,0.17,,2013-01-12 00:23:00,
2013-01-11 17:33:00,4.0,-99.9,-100.00,North,-999,-999.0,-999.0,-999,0.03,,,0.17,,2013-01-12 00:33:00,
2013-01-11 17:43:00,4.0,-99.9,-100.00,North,-999,-999.0,-999.0,-999,0.03,,,0.17,,2013-01-12 00:43:00,
2013-01-11 18:13:00,2.0,-99.9,-100.00,North,-999,-999.0,-999.0,-999,0.02,,,0.17,,2013-01-12 01:13:00,
2013-01-11 18:23:00,2.0,-99.9,-100.00,North,-999,-999.0,-999.0,-999,0.02,,,0.17,,2013-01-12 01:23:00,
2013-01-11 18:33:00,2.0,-99.9,-100.00,North,-999,-999.0,-999.0,-999,0.02,,,0.17,,2013-01-12 01:33:00,
2013-01-11 18:43:00,2.0,-99.9,-100.00,North,-999,-999.0,-999.0,-999,0.02,,,0.17,,2013-01-12 01:43:00,
2013-01-11 19:12:00,1.0,-99.9,-100.00,North,-999,-999.0,-999.0,-999,0.00,,,0.17,,2013-01-12 02:12:00,
2013-01-11 19:23:00,1.0,-99.9,-100.00,North,-999,-999.0,-999.0,-999,0.00,,,0.17,,2013-01-12 02:23:00,
2013-01-11 19:33:00,1.0,-99.9,-100.00,North,-999,-999.0,-999.0,-999,0.00,,,0.17,,2013-01-12 02:33:00,
2013-01-11 19:43:00,1.0,-99.9,-100.00,North,-999,-999.0,-999.0,-999,0.00,,,0.17,,2013-01-12 02:43:00,
2013-01-11 20:12:00,1.0,-99.9,-100.00,North,-999,-999.0,-999.0,-999,0.00,,,0.17,,2013-01-12 03:12:00,
2013-01-11 20:23:00,1.0,-99.9,-100.00,North,-999,-999.0,-999.0,-999,0.00,,,0.17,,2013-01-12 03:23:00,
2013-01-11 20:33:00,1.0,-99.9,-100.00,North,-999,-999.0,-999.0,-999,0.00,,,0.17,,2013-01-12 03:33:00,
2013-01-11 20:43:00,1.0,-99.9,-100.00,North,-999,-999.0,-999.0,-999,0.00,,,0.17,,2013-01-12 03:43:00,
2013-01-11 22:12:00,-3.0,-99.9,-100.00,North,-999,-999.0,-999.0,-999,0.02,,,0.19,,2013-01-12 05:12:00,
2013-01-11 22:22:00,-3.0,-99.9,-100.00,North,-999,-999.0,-999.0,-999,0.02,,,0.19,,2013-01-12 05:22:00,
2013-01-11 22:32:00,-3.0,-99.9,-100.00,North,-999,-999.0,-999.0,-999,0.02,,,0.19,,2013-01-12 05:32:00,
2013-01-11 22:42:00,-3.0,-99.9,-100.00,North,-999,-999.0,-999.0,-999,0.02,,,0.19,,2013-01-12 05:42:00,
2013-01-11 23:23:00,-6.0,-99.9,-100.00,North,-999,-999.0,-999.0,-999,0.00,,,0.19,,2013-01-12 06:23:00,
2013-01-11 23:33:00,-6.0,-99.9,-100.00,North,-999,-999.0,-999.0,-999,0.00,,,0.19,,2013-01-12 06:33:00,
2013-01-11 23:43:00,-6.0,-99.9,-100.00,North,-999,-999.0,-999.0,-999,0.00,,,0.19,,2013-01-12 06:43:00,